Date,TemperatureHighF,TemperatureAvgF,TemperatureLowF,DewpointHighF,DewpointAvgF,DewpointLowF,HumidityHigh,HumidityAvg,HumidityLow,PressureMaxIn,PressureMinIn,WindSpeedMaxMPH,WindSpeedAvgMPH,GustSpeedMaxMPH,PrecipitationSumIn
2013-1-1,30,29,28,28,27,26,94,91,89,29.96,29.87,4,2,11,0.00
2013-1-5,33,27,22,24,21,18,86,78,67,30.33,30.10,5,2,0,0.00
2013-1-6,36,33,30,30,27,22,91,79,71,30.12,29.95,4,2,0,0.01
2013-1-7,21,21,20,19,19,18,93,92,92,30.28,30.26,1,1,1,0.00
2013-1-8,34,27,19,27,23,18,94,86,76,30.34,30.24,1,0,2,0.13
2013-1-9,44,37,25,40,33,23,93,86,76,30.39,30.19,7,4,15,0.03
2013-1-10,37,36,30,31,29,27,89,77,75,30.55,30.39,4,3,9,0.00
2013-1-11,39,37,34,38,34,27,98,88,68,30.37,30.03,1,0,2,0.56
2013-1-12,58,50,37,54,48,36,100,95,85,30.10,30.03,1,0,3,0.00
2013-1-13,66,55,48,56,52,48,99,88,69,30.03,29.90,8,2,12,0.02
2013-1-14,39,35,31,36,29,26,94,79,72,30.30,30.16,2,0,5,0.08
2013-1-15,32,29,26,28,25,23,95,84,75,30.30,30.05,3,1,0,0.23
2013-1-16,33,31,29,32,30,26,98,94,84,30.05,29.83,4,1,5,0.33
2013-1-17,31,30,28,27,27,26,90,86,83,30.07,29.94,3,1,8,0.00
2013-1-18,17,16,16,10,10,9,74,73,73,30.37,30.37,2,1,6,0.01
2013-1-19,42,41,40,22,22,21,47,45,44,29.93,29.88,2,2,4,0.22
2013-1-20,44,31,20,30,18,12,72,58,46,30.05,29.78,8,4,17,0.00
2013-1-22,9,9,9,0,0,0,69,69,69,30.06,30.05,1,1,5,0.02
2013-1-23,6,6,6,-2,-2,-2,69,69,69,30.16,30.16,3,2,5,0.00
2013-1-30,51,51,49,51,50,48,99,98,94,29.31,29.25,7,2,8,0.97
2013-1-31,48,35,22,46,32,16,95,89,77,29.62,29.20,9,6,16,0.18
2013-2-9,24,23,23,16,16,15,73,72,71,30.31,30.30,1,0,8,0.00
2013-2-10,30,30,30,20,20,20,64,64,64,30.27,30.27,1,1,2,0.00
2013-2-11,57,55,54,42,40,36,64,56,49,29.72,29.66,8,6,12,0.16
2013-2-18,17,16,16,8,8,7,68,67,66,30.23,30.23,2,2,2,0.00
2013-2-20,16,16,16,12,12,12,84,84,84,30.08,30.07,2,2,5,0.00
2013-2-21,18,18,18,14,14,14,85,85,85,30.17,30.17,1,1,13,0.00
2013-2-25,36,36,36,24,24,23,62,61,60,30.14,30.14,0,0,5,0.00
2013-3-15,43,41,36,34,33,32,90,73,66,29.83,29.77,3,2,8,0.03
2013-3-16,35,34,31,35,34,30,98,98,97,29.90,29.64,0,0,2,0.12
2013-3-18,30,28,26,28,26,24,94,91,88,29.99,29.84,4,2,10,0.00
2013-3-19,30,30,30,29,29,29,97,97,97,29.73,29.73,0,0,9,0.00
2013-3-20,34,28,23,24,20,15,86,72,56,29.82,29.77,6,2,12,0.00
2013-3-21,19,19,19,15,15,15,87,87,87,29.75,29.75,1,1,6,0.00
2013-3-22,28,24,22,20,18,18,82,79,71,29.95,29.87,3,1,6,0.00
2013-3-23,33,29,23,23,21,19,84,72,65,29.98,29.93,4,2,5,0.00
2013-3-24,35,30,22,24,22,18,87,71,64,29.96,29.61,4,2,5,0.00
2013-3-25,34,31,29,31,29,27,95,91,87,29.48,29.47,0,0,2,0.00
2013-3-31,43,43,43,42,42,42,98,97,96,29.74,29.72,3,2,7,0.32
2013-4-1,43,35,30,40,31,28,93,86,73,29.86,29.69,5,2,10,0.03
2013-4-12,53,45,42,43,36,34,75,72,68,29.84,29.73,5,2,9,0.61
2013-4-13,45,42,37,35,34,32,81,73,64,29.95,29.82,2,1,7,0.00
2013-4-14,59,56,54,35,33,31,48,42,36,30.10,30.09,2,1,6,0.00
2013-4-15,57,57,57,48,48,48,71,71,71,30.16,30.16,4,4,5,0.00
2013-4-25,48,45,41,37,34,31,85,67,52,30.35,30.28,2,1,14,0.01
2013-4-26,61,48,38,37,32,27,86,60,29,30.42,30.34,2,0,6,0.01
2013-5-5,54,54,54,34,33,33,47,45,44,30.13,30.13,0,0,4,0.00
2013-5-6,63,58,45,52,49,39,81,71,68,30.12,30.10,2,1,3,0.00
2013-5-9,62,59,55,55,54,52,91,82,75,30.04,30.02,0,0,0,0.36
2013-5-10,73,60,54,62,56,52,98,88,66,30.05,29.90,2,0,4,0.18
2013-5-11,52,51,50,51,50,48,95,94,92,29.84,29.82,2,1,4,0.45
2013-5-12,50,44,39,48,31,28,93,63,52,29.99,29.83,4,2,6,0.05
2013-5-13,43,42,42,29,28,26,58,56,54,30.11,30.10,2,2,5,0.00
2013-5-24,40,39,38,33,32,31,80,77,74,30.23,30.22,2,1,6,0.06
2013-5-25,60,51,36,40,36,33,89,57,44,30.23,30.18,3,1,8,0.00
2013-5-26,67,50,37,44,36,32,83,60,37,30.26,30.20,2,1,6,0.00
2013-5-28,70,61,49,66,60,49,99,94,85,30.17,30.06,3,0,5,0.82
2013-5-29,74,74,74,64,64,64,71,71,71,30.15,30.15,3,3,3,0.00
2013-6-1,85,75,68,68,65,63,84,70,53,29.97,29.91,2,0,7,0.00
2013-6-2,77,69,65,65,62,60,94,80,57,29.92,29.86,3,1,6,0.03
2013-6-3,65,62,60,62,59,57,93,90,84,29.98,29.90,1,0,2,0.00
2013-6-6,58,58,58,57,57,57,96,96,96,29.96,29.96,0,0,0,0.00
2013-6-9,67,67,67,64,63,63,89,89,88,30.13,30.13,0,0,1,0.00
2013-6-10,116,59,-90,100,56,-100,100,90,66,30.13,29.84,4,-41,5,0.47
2013-6-11,66,63,61,65,62,61,98,98,93,29.89,29.84,2,1,3,0.08
2013-6-16,68,66,63,64,63,62,98,89,81,29.97,29.96,3,2,5,0.24
2013-6-17,78,70,65,65,63,61,98,82,63,30.03,30.01,1,0,4,0.09
2013-6-22,71,70,69,65,65,64,85,83,81,30.21,30.19,0,0,2,0.00
2013-6-23,89,78,66,73,67,64,94,72,52,30.24,30.13,1,0,3,0.00
2013-6-24,78,68,63,69,64,62,98,90,72,30.21,30.18,1,0,2,0.00
2013-6-27,67,66,66,66,66,64,99,98,95,29.70,29.68,2,1,5,1.11
2013-6-28,69,65,62,67,64,62,99,97,89,29.70,29.62,1,0,2,0.00
2013-6-29,71,70,69,65,64,63,83,81,77,29.67,29.66,1,1,2,0.00
2013-6-30,82,78,75,68,67,65,76,68,61,29.82,29.81,2,0,3,0.00
2013-7-1,72,71,71,67,67,66,87,86,83,29.95,29.95,0,0,7,0.00
2013-7-2,77,70,64,73,68,64,100,96,87,30.17,30.01,1,0,0,0.40
2013-7-3,83,71,65,72,68,65,100,91,67,30.26,30.16,1,0,0,0.32
2013-7-8,72,70,68,70,68,67,96,92,90,30.16,30.13,0,0,1,0.20
2013-7-16,86,78,73,75,72,70,91,82,66,30.35,30.30,0,0,2,0.00
2013-7-17,91,78,68,78,72,68,99,84,62,30.36,30.24,1,0,3,0.00
2013-7-18,95,82,71,79,74,70,96,77,55,30.27,30.12,0,0,1,0.00
2013-7-19,90,76,69,78,72,69,99,89,62,30.14,30.01,1,0,2,0.00
2013-7-20,70,70,70,69,69,69,98,98,98,29.98,29.97,0,0,1,0.10
2013-7-21,84,71,64,72,67,64,99,87,65,30.06,29.98,0,0,0,0.00
2013-7-22,76,69,64,71,68,64,100,96,83,30.03,29.84,3,0,3,0.29
2013-7-23,74,66,64,69,66,64,100,97,82,29.84,29.79,2,0,3,0.03
2013-7-24,74,63,58,62,57,53,99,84,61,30.03,29.80,1,0,0,0.03
2013-7-25,75,61,50,58,53,49,97,78,49,30.14,30.03,2,0,0,0.00
2013-7-26,84,70,62,64,60,58,87,72,45,30.08,30.06,0,0,1,0.00
2013-7-27,65,59,56,64,58,55,98,94,87,30.08,30.01,1,0,2,0.35
2013-7-28,79,66,59,64,60,55,100,84,51,30.08,29.92,1,0,0,0.09
2013-7-29,72,61,51,59,55,50,95,80,61,30.24,30.08,0,0,0,0.00
2013-7-30,77,62,51,64,56,50,97,81,57,30.29,30.21,1,0,0,0.00
2013-7-31,79,64,52,65,60,52,98,85,60,30.23,30.02,0,0,0,0.00
2013-8-1,80,68,63,70,63,60,99,87,59,30.02,29.91,1,0,4,0.07
2013-8-2,78,63,56,61,58,56,98,85,50,30.03,29.94,1,0,5,0.00
2013-8-3,76,65,60,66,62,57,98,90,71,30.04,29.98,2,0,0,0.11
2013-8-4,71,60,51,59,54,51,98,81,59,30.13,30.03,1,0,0,0.00
2013-8-5,77,61,49,58,53,48,98,78,48,30.17,30.08,1,0,0,0.00
2013-8-6,80,65,53,63,58,52,97,80,54,30.10,30.05,1,0,0,0.00
2013-8-7,79,68,62,72,65,60,99,90,75,30.09,30.00,3,0,0,0.63
2013-8-8,77,67,61,72,67,61,100,98,85,30.07,30.00,0,0,0,1.99
2013-8-9,75,70,66,72,69,65,100,98,93,30.07,29.96,0,0,1,0.67
2013-8-10,83,68,60,70,62,53,99,83,58,30.16,30.06,0,0,3,0.00
2013-8-11,85,66,59,72,63,59,100,90,63,30.18,30.11,0,0,3,0.00
2013-8-12,74,73,73,66,66,66,80,78,76,30.10,30.10,0,0,0,0.00
2013-8-26,75,74,72,67,66,65,78,76,74,30.12,30.09,0,0,1,0.00
2013-8-31,71,70,68,68,67,67,95,92,89,29.92,29.91,0,0,2,0.00
2013-9-1,75,69,64,72,68,64,100,96,87,29.95,29.86,1,0,3,2.27
2013-9-2,82,70,63,73,67,63,100,93,71,29.89,29.81,0,0,2,0.00
2013-9-13,50,48,46,48,46,45,96,95,93,30.03,29.99,1,0,3,0.00
2013-9-14,62,54,46,50,46,42,96,76,60,30.16,30.02,1,0,3,0.00
2013-9-15,70,49,39,59,46,38,99,90,58,30.23,30.13,0,0,3,0.03
2013-9-20,65,64,62,62,62,61,96,93,91,29.97,29.94,0,0,0,0.00
2013-9-21,67,61,55,64,60,54,100,98,90,29.94,29.72,2,0,6,1.33
2013-9-22,61,53,49,55,50,46,100,89,69,30.01,29.80,1,0,3,0.02
2013-9-28,49,48,48,47,47,47,96,96,95,30.24,30.23,0,0,0,0.00
2013-9-29,59,47,43,53,46,42,99,97,80,30.23,30.16,1,0,2,0.00
2013-10-6,84,75,68,67,62,59,77,63,49,29.94,29.87,2,1,8,0.00
2013-10-7,68,60,51,62,57,51,98,90,79,29.86,29.75,2,0,5,0.52
2013-10-18,54,47,41,44,40,39,91,78,63,30.02,29.98,1,0,1,0.00
2013-10-19,51,45,39,47,43,38,99,93,86,30.01,29.79,0,0,1,0.00
2013-11-2,43,41,41,40,40,40,96,95,90,29.91,29.81,2,1,5,0.38
2013-11-3,46,43,39,40,34,29,96,72,57,30.28,29.91,2,1,6,0.02
2013-11-16,53,50,47,46,45,44,92,84,74,30.18,30.12,1,0,3,0.83
2013-11-17,55,52,48,54,51,46,99,96,92,30.13,29.84,1,0,6,0.32
2013-11-26,-200,0,200,-100,-100,-100,0,0,100,29.95,29.64,0,-966,0,0.84
2013-11-27,-200,0,200,-100,-100,-100,0,0,100,29.99,29.60,0,-999,0,0.00
2013-11-28,-200,0,200,-100,-100,-100,0,0,100,30.37,29.99,0,-999,0,0.00
2013-11-29,-200,0,200,-100,-100,-100,0,0,100,30.57,30.36,0,-999,0,0.00
2013-12-8,-200,0,200,-100,-100,-100,0,0,100,30.34,30.33,0,-999,0,0.00
2013-12-15,-200,0,200,-100,-100,-100,0,0,100,29.78,29.78,0,-999,0,0.00